Eureka, NV

8:22 PM PDT on July 26, 2017 (GMT -0700)
Eureka

Weather History for KP68 - September, 2012

Change the Weather History Date:

Monday, September 10, 2012

  Actual Average Record
Temperature  
Mean Temperature 69 °F 60 °F  
Max Temperature 83 °F 80 °F 91 °F (1990)
Min Temperature 55 °F 41 °F 25 °F (1985)
Degree Days  
Heating Degree Days 0 5  
Month to date heating degree days 2 40  
Since 1 July heating degree days 2 87  
Cooling Degree Days 4 0  
Month to date cooling degree days 20 9  
Year to date cooling degree days 528 286  
Growing Degree Days 20 (Base 50)    
Moisture  
Dew Point 50 °F    
Average Humidity 56    
Maximum Humidity 80    
Minimum Humidity 31    
Precipitation  
Precipitation 0.00 in 0.02 in 0.19 in (1998)
Month to date precipitation 0.36 0.20  
Year to date precipitation 5.02 6.49  
Sea Level Pressure  
Sea Level Pressure 29.86 in    
Wind  
Wind Speed 5 mph (SE)    
Max Wind Speed 17 mph    
Max Gust Speed 20 mph    
T = Trace of Precipitation, MM = Missing Value Source: NWS Daily Summary

Daily Weather History Graph

Daily Weather History Graph

Search for Another Location

Airport or City:

Trip Planner

Search our weather history database for the weather conditions in past years. The results will help you decide how hot, cold, wet, or windy it might be!

Date:

Astronomy

Sep. 10, 2012 Rise Set
Actual Time 6:20 AM PDT 6:59 PM PDT
Civil Twilight 5:53 AM PDT 7:26 PM PDT
Nautical Twilight 5:21 AM PDT 7:58 PM PDT
Astronomical Twilight 4:48 AM PDT 8:31 PM PDT
Moon 12:47 AM PDT (9/10) 3:31 PM PDT (9/10)
Length of Visible Light 13h 32m
Length of Day
12h 38m
Waning Crescent, 29% of the Moon is Illuminated
Sep 10
Waning Crescent
Sep 15
New
Sep 22
First Quarter
Sep 29
Full
Oct 8
Last Quarter

Hourly Weather History & Observations

Time (PDT) Temp. Dew Point Humidity Pressure Visibility Wind Dir Wind Speed Gust Speed Precip Events Conditions
12:53 AM 62.1 °F 55.0 °F 78% 29.92 in - WSW 5.8 mph - N/A   Unknown
1:53 AM 61.0 °F 53.1 °F 75% 29.89 in - SE 5.8 mph - N/A   Unknown
2:53 AM 66.9 °F 48.9 °F 52% 29.89 in - SSE 6.9 mph - N/A   Unknown
3:53 AM 64.9 °F 48.9 °F 56% 29.88 in - SSW 9.2 mph - N/A   Unknown
4:53 AM 59.0 °F 52.0 °F 78% 29.91 in - SSW 4.6 mph - N/A   Unknown
5:53 AM 57.0 °F 51.1 °F 81% 29.92 in - SSW 6.9 mph - N/A   Unknown
6:53 AM 57.0 °F 52.0 °F 83% 29.93 in - Calm Calm - N/A   Unknown
7:53 AM 59.0 °F 53.1 °F 81% 29.96 in - SSW 3.5 mph - N/A   Unknown
8:53 AM 66.0 °F 53.1 °F 63% 29.94 in - South 3.5 mph - N/A   Unknown
9:53 AM 68.0 °F 53.1 °F 59% 29.94 in - Calm Calm - N/A   Unknown
10:53 AM 72.0 °F 55.0 °F 55% 29.92 in - ENE 3.5 mph - N/A   Unknown
11:53 AM 75.9 °F 54.0 °F 46% 29.88 in - Calm Calm - N/A   Unknown
12:53 PM 77.0 °F 52.0 °F 42% 29.86 in - ENE 5.8 mph - N/A   Unknown
1:53 PM 79.0 °F 52.0 °F 39% 29.82 in - ESE 6.9 mph - N/A   Unknown
2:53 PM 80.1 °F 48.0 °F 32% 29.76 in - East 4.6 mph - N/A   Unknown
3:53 PM 82.0 °F 48.9 °F 31% 29.75 in - SE 11.5 mph - N/A   Unknown
4:53 PM 80.1 °F 48.0 °F 32% 29.75 in - SSE 4.6 mph - N/A   Unknown
5:53 PM 80.1 °F 48.0 °F 32% 29.75 in - NE 8.1 mph - N/A   Unknown
6:53 PM 75.9 °F 54.0 °F 46% 29.78 in - NNE 4.6 mph - N/A   Unknown
7:53 PM 68.0 °F 51.1 °F 55% 29.82 in - Calm Calm - N/A   Unknown
8:53 PM 64.9 °F 45.0 °F 48% 29.83 in - NW 3.5 mph - N/A   Unknown
9:53 PM 63.0 °F 44.1 °F 50% 29.84 in - SE 6.9 mph - N/A   Unknown
10:53 PM 61.0 °F 45.0 °F 56% 29.84 in - East 5.8 mph - N/A   Unknown
11:53 PM 61.0 °F 46.0 °F 58% 29.84 in - South 5.8 mph - N/A   Unknown